�v������,,���ԉ��x,�����t���O,���Ԏ��x,�����t���O,�n������,�����t���O,�Q�����x,�����t���O,�{�C���[,�����t���O,15��,�����i7/5�`10���Ԋu�j,�����t���O
2004/7/1,0:00:00,24.4,0,61.2,0,22.3,0,25,0,,0,2004/7/1 0:00,19.7,0
2004/7/1,0:10:00,24.3,0,61.2,0,22.3,0,25,0,,0,2004/7/1 0:15,20.2,0
2004/7/1,0:20:00,24.3,0,61.1,0,22.3,0,25,0,,0,2004/7/1 0:30,20.7,0
2004/7/1,0:30:00,24.2,0,61,0,22.3,0,24.9,0,,0,2004/7/1 0:45,21.1,0
2004/7/1,0:40:00,24.2,0,60.9,0,22.3,0,24.9,0,,0,2004/7/1 1:00,21.5,0
2004/7/1,0:50:00,24.2,0,60.8,0,22.3,0,24.9,0,,0,2004/7/1 1:15,21.8,0
2004/7/1,1:00:00,24.2,0,60.7,0,22.2,0,24.9,0,,0,2004/7/1 1:30,21.9,0
2004/7/1,1:10:00,24.1,0,60.5,0,22.2,0,24.9,0,,0,2004/7/1 1:45,22.2,0
2004/7/1,1:20:00,24.1,0,60.5,0,22.2,0,24.9,0,,0,2004/7/1 2:00,22.3,0
2004/7/1,1:30:00,24.1,0,60.4,0,22.2,0,24.8,0,,0,2004/7/1 2:15,22.4,0
2004/7/1,1:40:00,24,0,60.4,0,22.2,0,24.8,0,,0,2004/7/1 2:30,22.5,0
2004/7/1,1:50:00,24,0,60.3,0,22.2,0,24.8,0,,0,2004/7/1 2:45,22.6,0
2004/7/1,2:00:00,24,0,60.2,0,22.2,0,24.8,0,,0,2004/7/1 3:00,21.2,0
2004/7/1,2:10:00,24,0,60.2,0,22.2,0,24.7,0,,0,2004/7/1 3:15,19.7,0
2004/7/1,2:20:00,23.9,0,60.1,0,22.2,0,24.7,0,,0,2004/7/1 3:30,20.5,0
2004/7/1,2:30:00,23.9,0,60.1,0,22.2,0,24.7,0,,0,2004/7/1 3:45,21,0
2004/7/1,2:40:00,23.9,0,60,0,22.2,0,24.6,0,,0,2004/7/1 4:00,21.4,0
2004/7/1,2:50:00,23.8,0,60,0,22.2,0,24.6,0,,0,2004/7/1 4:15,21.8,0
2004/7/1,3:00:00,23.8,0,60.1,0,22.2,0,24.6,0,,0,2004/7/1 4:30,22,0
2004/7/1,3:10:00,23.8,0,59.9,0,22.2,0,24.6,0,,0,2004/7/1 4:45,22.3,0
2004/7/1,3:20:00,23.8,0,60,0,22.2,0,24.6,0,,0,2004/7/1 5:00,22.5,0
2004/7/1,3:30:00,23.7,0,60.1,0,22.2,0,24.5,0,,0,2004/7/1 5:15,22.6,0
2004/7/1,3:40:00,23.7,0,60,0,22.2,0,24.5,0,,0,2004/7/1 5:30,22.7,0
2004/7/1,3:50:00,23.7,0,59.9,0,22.2,0,24.5,0,,0,2004/7/1 5:45,22.8,0
2004/7/1,4:00:00,23.7,0,59.9,0,22.2,0,24.5,0,,0,2004/7/1 6:00,22.9,0
2004/7/1,4:10:00,23.6,0,60,0,22.2,0,24.4,0,,0,2004/7/1 6:15,22.9,0
2004/7/1,4:20:00,23.6,0,59.9,0,22.2,0,24.4,0,,0,2004/7/1 6:30,23,0
2004/7/1,4:30:00,23.6,0,60,0,22.2,0,24.4,0,,0,2004/7/1 6:45,20.2,0
2004/7/1,4:40:00,23.6,0,59.9,0,22.2,0,24.4,0,,0,2004/7/1 7:00,17.7,0
2004/7/1,4:50:00,23.6,0,59.9,0,22.2,0,24.3,0,,0,2004/7/1 7:15,18.2,0
2004/7/1,5:00:00,23.6,0,60,0,22.2,0,24.3,0,,0,2004/7/1 7:30,18.1,0
2004/7/1,5:10:00,23.6,0,60,0,22.2,0,24.3,0,,0,2004/7/1 7:45,18.4,0
2004/7/1,5:20:00,23.5,0,59.9,0,22.2,0,24.3,0,,0,2004/7/1 8:00,18.6,0
2004/7/1,5:30:00,23.5,0,59.9,0,22.1,0,24.2,0,,0,2004/7/1 8:15,18.8,0
2004/7/1,5:40:00,23.5,0,60,0,22.1,0,24.2,0,,0,2004/7/1 8:30,19.2,0
2004/7/1,5:50:00,23.5,0,59.8,0,22.1,0,24.2,0,,0,2004/7/1 8:45,19.8,0
2004/7/1,6:00:00,23.5,0,59.8,0,22.1,0,24.2,0,,0,2004/7/1 9:00,20.1,0
2004/7/1,6:10:00,23.5,0,59.7,0,22.1,0,24.2,0,,0,2004/7/1 9:15,19.3,0
2004/7/1,6:20:00,23.5,0,59.5,0,22.1,0,24.2,0,,0,2004/7/1 9:30,17.4,0
2004/7/1,6:30:00,23.5,0,59.7,0,22.1,0,24.3,0,,0,2004/7/1 9:45,18,0
2004/7/1,6:40:00,23.5,0,59.5,0,22.1,0,24.3,0,,0,2004/7/1 10:00,17.1,0
2004/7/1,6:50:00,23.6,0,59.4,0,22.1,0,24.3,0,,0,2004/7/1 10:15,17.3,0
2004/7/1,7:00:00,23.6,0,58.3,0,22.1,0,24.2,0,,0,2004/7/1 10:30,17.7,0
2004/7/1,7:10:00,23.5,0,56.6,0,22.1,0,24.2,0,,0,2004/7/1 10:45,16.9,0
2004/7/1,7:20:00,23.5,0,56.1,0,22.1,0,24.1,0,,0,2004/7/1 11:00,18.1,0
2004/7/1,7:30:00,23.5,0,54.8,0,22.1,0,24.1,0,,0,2004/7/1 11:15,18.4,0
2004/7/1,7:40:00,23.6,0,55.2,0,22.1,0,24.1,0,,0,2004/7/1 11:30,19.3,0
2004/7/1,7:50:00,23.6,0,54.7,0,22.1,0,24,0,,0,2004/7/1 11:45,20.1,0
2004/7/1,8:00:00,23.6,0,53.9,0,22.1,0,24,0,,0,2004/7/1 12:00,20.5,0
2004/7/1,8:10:00,23.6,0,53.4,0,22.1,0,23.9,0,,0,2004/7/1 12:15,20.9,0
2004/7/1,8:20:00,23.6,0,53,0,22.1,0,23.9,0,,0,2004/7/1 12:30,21.4,0
2004/7/1,8:30:00,23.6,0,53.1,0,22.1,0,23.9,0,,0,2004/7/1 12:45,19.1,0
2004/7/1,8:40:00,23.6,0,53.2,0,22.1,0,23.9,0,,0,2004/7/1 13:00,20,0
2004/7/1,8:50:00,23.7,0,53.2,0,22.1,0,23.9,0,,0,2004/7/1 13:15,20.5,0
2004/7/1,9:00:00,23.7,0,52.9,0,22.1,0,23.9,0,,0,2004/7/1 13:30,20.8,0
2004/7/1,9:10:00,23.7,0,53,0,22.1,0,23.9,0,,0,2004/7/1 13:45,21.1,0
2004/7/1,9:20:00,23.7,0,53.1,0,22.1,0,23.9,0,,0,2004/7/1 14:00,21.3,0
2004/7/1,9:30:00,23.8,0,53.5,0,22.1,0,23.9,0,,0,2004/7/1 14:15,21.5,0
2004/7/1,9:40:00,23.8,0,53.5,0,22.1,0,23.9,0,,0,2004/7/1 14:30,21.7,0
2004/7/1,9:50:00,23.7,0,53.5,0,22.1,0,23.9,0,,0,2004/7/1 14:45,21.7,0
2004/7/1,10:00:00,23.8,0,53.5,0,22.1,0,23.9,0,,0,2004/7/1 15:00,21.8,0
2004/7/1,10:10:00,23.8,0,54,0,22.1,0,23.9,0,,0,2004/7/1 15:15,22,0
2004/7/1,10:20:00,23.8,0,53.5,0,22.1,0,23.9,0,,0,2004/7/1 15:30,22,0
2004/7/1,10:30:00,23.8,0,53.8,0,22.1,0,24,0,,0,2004/7/1 15:45,22.2,0
2004/7/1,10:40:00,23.8,0,53.4,0,22.1,0,24,0,,0,2004/7/1 16:00,22.3,0
2004/7/1,10:50:00,23.9,0,53.4,0,22.1,0,24,0,,0,2004/7/1 16:15,22.3,0
2004/7/1,11:00:00,23.8,0,53.2,0,22.1,0,24,0,,0,2004/7/1 16:30,22.3,0
2004/7/1,11:10:00,23.9,0,53,0,22.1,0,24.1,0,,0,2004/7/1 16:45,19.7,0
2004/7/1,11:20:00,23.9,0,53.4,0,22.1,0,24.1,0,,0,2004/7/1 17:00,19.9,0
2004/7/1,11:30:00,24,0,53,0,22.1,0,24.1,0,,0,2004/7/1 17:15,20.6,0
2004/7/1,11:40:00,24,0,52.6,0,22.1,0,24.2,0,,0,2004/7/1 17:30,21,0
2004/7/1,11:50:00,24.1,0,52.2,0,22.1,0,24.2,0,,0,2004/7/1 17:45,21.3,0
2004/7/1,12:00:00,24,0,52.2,0,22.1,0,24.3,0,,0,2004/7/1 18:00,19.6,0
2004/7/1,12:10:00,24.1,0,51.7,0,22.1,0,24.3,0,,0,2004/7/1 18:15,19.6,0
2004/7/1,12:20:00,24.1,0,51.5,0,22.1,0,24.3,0,,0,2004/7/1 18:30,18,0
2004/7/1,12:30:00,24,0,51.5,0,22.1,0,24.3,0,,0,2004/7/1 18:45,18.1,0
2004/7/1,12:40:00,24.1,0,51.2,0,22.1,0,24.3,0,,0,2004/7/1 19:00,17.9,0
2004/7/1,12:50:00,24.1,0,51.5,0,22.1,0,24.4,0,,0,2004/7/1 19:15,17.9,0
2004/7/1,13:00:00,24.1,0,52.2,0,22.1,0,24.4,0,,0,2004/7/1 19:30,18,0
2004/7/1,13:10:00,24.1,0,52,0,22.1,0,24.4,0,,0,2004/7/1 19:45,18.5,0
2004/7/1,13:20:00,24.1,0,52.1,0,22.1,0,24.4,0,,0,2004/7/1 20:00,17.3,0
2004/7/1,13:30:00,24.1,0,51.8,0,22.1,0,24.4,0,,0,2004/7/1 20:15,18,0
2004/7/1,13:40:00,24.1,0,51.8,0,22.1,0,24.3,0,,0,2004/7/1 20:30,17.5,0
2004/7/1,13:50:00,24,0,51.3,0,22.1,0,24.3,0,,0,2004/7/1 20:45,18.4,0
2004/7/1,14:00:00,24.2,0,51.1,0,22.1,0,24.4,0,,0,2004/7/1 21:00,19.1,0
2004/7/1,14:10:00,24.2,0,51.4,0,22.1,0,24.4,0,,0,2004/7/1 21:15,19.7,0
2004/7/1,14:20:00,24.2,0,51.3,0,22.1,0,24.4,0,,0,2004/7/1 21:30,20.1,0
2004/7/1,14:30:00,24.3,0,50.7,0,22.1,0,24.4,0,,0,2004/7/1 21:45,20.5,0
2004/7/1,14:40:00,24.4,0,50.6,0,22.2,0,24.5,0,,0,2004/7/1 22:00,20.9,0
2004/7/1,14:50:00,24.4,0,50.4,0,22.2,0,24.5,0,,0,2004/7/1 22:15,21.2,0
2004/7/1,15:00:00,24.4,0,50.3,0,22.2,0,24.5,0,,0,2004/7/1 22:30,21.3,0
2004/7/1,15:10:00,24.5,0,49.9,0,22.2,0,24.6,0,,0,2004/7/1 22:45,21.4,0
2004/7/1,15:20:00,24.5,0,50.2,0,22.3,0,24.6,0,,0,2004/7/1 23:00,17.5,0
2004/7/1,15:30:00,24.6,0,49.9,0,22.3,0,24.7,0,,0,2004/7/1 23:15,17.6,0
2004/7/1,15:40:00,24.6,0,49.8,0,22.3,0,24.7,0,,0,2004/7/1 23:30,18.3,0
2004/7/1,15:50:00,24.6,0,49.5,0,22.4,0,24.8,0,,0,2004/7/1 23:45,18.9,0
2004/7/1,16:00:00,24.6,0,49.2,0,22.4,0,24.8,0,,0,2004/7/2 0:00,19.5,0
2004/7/1,16:10:00,24.7,0,49.1,0,22.5,0,24.9,0,,0,2004/7/2 0:15,20.1,0
2004/7/1,16:20:00,24.6,0,49,0,22.5,0,24.9,0,,0,2004/7/2 0:30,20.4,0
2004/7/1,16:30:00,24.6,0,49.4,0,22.5,0,24.9,0,,0,2004/7/2 0:45,20.7,0
2004/7/1,16:40:00,24.6,0,49.1,0,22.5,0,25,0,,0,2004/7/2 1:00,21.1,0
2004/7/1,16:50:00,24.7,0,48.3,0,22.5,0,25,0,,0,2004/7/2 1:15,21.3,0
2004/7/1,17:00:00,24.6,0,48.7,0,22.5,0,25,0,,0,2004/7/2 1:30,21.5,0
2004/7/1,17:10:00,24.6,0,48.5,0,22.4,0,25.1,0,,0,2004/7/2 1:45,21.7,0
2004/7/1,17:20:00,24.5,0,48.6,0,22.4,0,25.1,0,,0,2004/7/2 2:00,21.8,0
2004/7/1,17:30:00,24.5,0,48.4,0,22.3,0,25.1,0,,0,2004/7/2 2:15,21.9,0
2004/7/1,17:40:00,24.4,0,48.5,0,22.3,0,25.1,0,,0,2004/7/2 2:30,22.1,0
2004/7/1,17:50:00,24.3,0,48.4,0,22.3,0,25.1,0,,0,2004/7/2 2:45,22.1,0
2004/7/1,18:00:00,24.3,0,48.4,0,22.3,0,25,0,,0,2004/7/2 3:00,22.2,0
2004/7/1,18:10:00,24.2,0,49.4,0,22.3,0,25,0,,0,2004/7/2 3:15,22.2,0
2004/7/1,18:20:00,24.1,0,49.6,0,22.2,0,25,0,,0,2004/7/2 3:30,22.2,0
2004/7/1,18:30:00,24,0,50,0,22.2,0,25,0,,0,2004/7/2 3:45,22.2,0
2004/7/1,18:40:00,24,0,50.3,0,22.2,0,25,0,,0,2004/7/2 4:00,22.2,0
2004/7/1,18:50:00,24,0,50.1,0,22.2,0,24.9,0,,0,2004/7/2 4:15,22.2,0
2004/7/1,19:00:00,23.9,0,50.4,0,22.1,0,24.9,0,,0,2004/7/2 4:30,18.3,0
2004/7/1,19:10:00,23.8,0,50.8,0,22.1,0,24.8,0,,0,2004/7/2 4:45,19.2,0
2004/7/1,19:20:00,23.7,0,50.6,0,22.1,0,24.8,0,,0,2004/7/2 5:00,20,0
2004/7/1,19:30:00,23.6,0,50.3,0,22,0,24.7,0,,0,2004/7/2 5:15,20.4,0
2004/7/1,19:40:00,23.6,0,51.2,0,22,0,24.6,0,,0,2004/7/2 5:30,20.8,0
2004/7/1,19:50:00,23.6,0,51.2,0,22,0,24.6,0,,0,2004/7/2 5:45,21.1,0
2004/7/1,20:00:00,23.7,0,51.1,0,22,0,24.5,0,,0,2004/7/2 6:00,18.7,0
2004/7/1,20:10:00,23.6,0,51.5,0,22,0,24.5,0,,0,2004/7/2 6:15,19.4,0
2004/7/1,20:20:00,23.8,0,51.2,0,22,0,24.4,0,,0,2004/7/2 6:30,20.1,0
2004/7/1,20:30:00,23.8,0,51,0,22,0,24.4,0,,0,2004/7/2 6:45,17.3,0
2004/7/1,20:40:00,23.7,0,50.8,0,22,0,24.4,0,,0,2004/7/2 7:00,17.6,0
2004/7/1,20:50:00,23.7,0,51.4,0,22,0,24.3,0,,0,2004/7/2 7:15,17.9,0
2004/7/1,21:00:00,23.6,0,51.5,0,21.9,0,24.3,0,,0,2004/7/2 7:30,18.4,0
2004/7/1,21:10:00,23.6,0,50.8,0,21.9,0,24.2,0,,0,2004/7/2 7:45,18.6,0
2004/7/1,21:20:00,23.6,0,50.6,0,21.9,0,24.2,0,,0,2004/7/2 8:00,19.1,0
2004/7/1,21:30:00,23.5,0,51.6,0,21.9,0,24.1,0,,0,2004/7/2 8:15,18,0
2004/7/1,21:40:00,23.5,0,51.9,0,21.9,0,24.1,0,,0,2004/7/2 8:30,18.3,0
2004/7/1,21:50:00,23.4,0,51.8,0,21.9,0,24.1,0,,0,2004/7/2 8:45,18.1,0
2004/7/1,22:00:00,23.4,0,51.4,0,21.8,0,24,0,,0,2004/7/2 9:00,18.7,0
2004/7/1,22:10:00,23.4,0,52.2,0,21.8,0,24,0,,0,2004/7/2 9:15,19.5,0
2004/7/1,22:20:00,23.4,0,52.9,0,21.8,0,23.9,0,,0,2004/7/2 9:30,20.1,0
2004/7/1,22:30:00,23.4,0,53.3,0,21.9,0,23.9,0,,0,2004/7/2 9:45,20.6,0
2004/7/1,22:40:00,23.4,0,53.5,0,21.9,0,23.9,0,,0,2004/7/2 10:00,21,0
2004/7/1,22:50:00,23.4,0,53.7,0,21.9,0,23.8,0,,0,2004/7/2 10:15,21.3,0
2004/7/1,23:00:00,23.4,0,53.9,0,21.9,0,23.8,0,,0,2004/7/2 10:30,21.5,0
2004/7/1,23:10:00,23.4,0,54.1,0,21.9,0,23.8,0,,0,2004/7/2 10:45,21.8,0
2004/7/1,23:20:00,23.4,0,54.3,0,21.9,0,23.7,0,,0,2004/7/2 11:00,21.9,0
2004/7/1,23:30:00,23.4,0,54.6,0,21.9,0,23.7,0,,0,2004/7/2 11:15,21.9,0
2004/7/1,23:40:00,23.3,0,54.7,0,21.9,0,23.7,0,,0,2004/7/2 11:30,22.1,0
2004/7/1,23:50:00,23.3,0,54.9,0,21.8,0,23.7,0,,0,2004/7/2 11:45,22.1,0
2004/7/2,0:00:00,23.2,0,55,0,21.8,0,23.7,0,,0,2004/7/2 12:00,22.2,0
2004/7/2,0:10:00,23.2,0,55.1,0,21.8,0,23.7,0,,0,2004/7/2 12:15,22.3,0
2004/7/2,0:20:00,23.2,0,55.2,0,21.8,0,23.7,0,,0,2004/7/2 12:30,20.6,0
2004/7/2,0:30:00,23.1,0,55.3,0,21.8,0,23.6,0,,0,2004/7/2 12:45,19.9,0
2004/7/2,0:40:00,23.1,0,55.4,0,21.8,0,23.6,0,,0,2004/7/2 13:00,20.6,0
2004/7/2,0:50:00,23,0,55.5,0,21.8,0,23.6,0,,0,2004/7/2 13:15,21.1,0
2004/7/2,1:00:00,23,0,55.5,0,21.8,0,23.6,0,,0,2004/7/2 13:30,21.4,0
2004/7/2,1:10:00,23,0,55.6,0,21.8,0,23.5,0,,0,2004/7/2 13:45,20.3,0
2004/7/2,1:20:00,22.9,0,55.7,0,21.8,0,23.5,0,,0,2004/7/2 14:00,20.6,0
2004/7/2,1:30:00,22.9,0,55.7,0,21.8,0,23.5,0,,0,2004/7/2 14:15,21.2,0
2004/7/2,1:40:00,22.9,0,55.8,0,21.8,0,23.4,0,,0,2004/7/2 14:30,19.7,0
2004/7/2,1:50:00,22.8,0,55.9,0,21.8,0,23.4,0,,0,2004/7/2 14:45,20.5,0
2004/7/2,2:00:00,22.8,0,55.9,0,21.7,0,23.4,0,,0,2004/7/2 15:00,20.9,0
2004/7/2,2:10:00,22.8,0,56,0,21.7,0,23.3,0,,0,2004/7/2 15:15,21.3,0
2004/7/2,2:20:00,22.7,0,56.1,0,21.7,0,23.3,0,,0,2004/7/2 15:30,21.6,0
2004/7/2,2:30:00,22.7,0,56.1,0,21.7,0,23.3,0,,0,2004/7/2 15:45,19.4,0
2004/7/2,2:40:00,22.7,0,56.2,0,21.7,0,23.2,0,,0,2004/7/2 16:00,20.2,0
2004/7/2,2:50:00,22.6,0,56.3,0,21.7,0,23.2,0,,0,2004/7/2 16:15,20.7,0
2004/7/2,3:00:00,22.6,0,56.3,0,21.7,0,23.2,0,,0,2004/7/2 16:30,21.1,0
2004/7/2,3:10:00,22.6,0,56.3,0,21.7,0,23.2,0,,0,2004/7/2 16:45,21.5,0
2004/7/2,3:20:00,22.6,0,56.4,0,21.7,0,23.1,0,,0,2004/7/2 17:00,21.8,0
2004/7/2,3:30:00,22.5,0,56.4,0,21.7,0,23.1,0,,0,2004/7/2 17:15,21.9,0
2004/7/2,3:40:00,22.5,0,56.5,0,21.7,0,23,0,,0,2004/7/2 17:30,22.2,0
2004/7/2,3:50:00,22.5,0,56.5,0,21.7,0,23,0,,0,2004/7/2 17:45,22.3,0
2004/7/2,4:00:00,22.5,0,56.6,0,21.6,0,23,0,,0,2004/7/2 18:00,20.3,0
2004/7/2,4:10:00,22.4,0,56.6,0,21.6,0,22.9,0,,0,2004/7/2 18:15,17.6,0
2004/7/2,4:20:00,22.4,0,56.7,0,21.6,0,22.9,0,,0,2004/7/2 18:30,17.9,0
2004/7/2,4:30:00,22.4,0,56.7,0,21.6,0,22.9,0,,0,2004/7/2 18:45,18,0
2004/7/2,4:40:00,22.4,0,56.7,0,21.6,0,22.8,0,,0,2004/7/2 19:00,18.8,0
2004/7/2,4:50:00,22.4,0,56.7,0,21.6,0,22.8,0,,0,2004/7/2 19:15,19.2,0
2004/7/2,5:00:00,22.4,0,56.7,0,21.6,0,22.8,0,,0,2004/7/2 19:30,19.7,0
2004/7/2,5:10:00,22.4,0,56.7,0,21.6,0,22.8,0,,0,2004/7/2 19:45,20.1,0
2004/7/2,5:20:00,22.3,0,56.7,0,21.6,0,22.8,0,,0,2004/7/2 20:00,19.1,0
2004/7/2,5:30:00,22.3,0,56.7,0,21.6,0,22.8,0,,0,2004/7/2 20:15,19.2,0
2004/7/2,5:40:00,22.3,0,56.7,0,21.6,0,22.8,0,,0,2004/7/2 20:30,19.2,0
2004/7/2,5:50:00,22.3,0,56.7,0,21.6,0,22.8,0,,0,2004/7/2 20:45,19.3,0
2004/7/2,6:00:00,22.4,0,56.6,0,21.6,0,22.8,0,,0,2004/7/2 21:00,18.5,0
2004/7/2,6:10:00,22.4,0,56.6,0,21.5,0,22.8,0,,0,2004/7/2 21:15,19.3,0
2004/7/2,6:20:00,22.4,0,56.6,0,21.6,0,22.8,0,,0,2004/7/2 21:30,19.9,0
2004/7/2,6:30:00,22.4,0,56.6,0,21.5,0,22.9,0,,0,2004/7/2 21:45,20.4,0
2004/7/2,6:40:00,22.4,0,56.5,0,21.5,0,22.9,0,,0,2004/7/2 22:00,20.7,0
2004/7/2,6:50:00,22.4,0,56.4,0,21.5,0,23,0,,0,2004/7/2 22:15,20.9,0
2004/7/2,7:00:00,22.5,0,56.9,0,21.5,0,23,0,,0,2004/7/2 22:30,18.8,0
2004/7/2,7:10:00,22.6,0,56.8,0,21.5,0,23,0,,0,2004/7/2 22:45,18.6,0
2004/7/2,7:20:00,22.6,0,55.9,0,21.6,0,23,0,,0,2004/7/2 23:00,19.4,0
2004/7/2,7:30:00,22.7,0,56,0,21.6,0,23,0,,0,2004/7/2 23:15,20.1,0
2004/7/2,7:40:00,22.8,0,56,0,21.6,0,23,0,,0,2004/7/2 23:30,17.8,0
2004/7/2,7:50:00,22.8,0,56.8,0,21.6,0,23,0,,0,2004/7/2 23:45,18.2,0
2004/7/2,8:00:00,22.8,0,56.3,0,21.6,0,23,0,,0,2004/7/3 0:00,18.8,0
2004/7/2,8:10:00,22.9,0,56.8,0,21.6,0,23,0,,0,2004/7/3 0:15,19.6,0
2004/7/2,8:20:00,22.9,0,55.9,0,21.6,0,23.1,0,,0,2004/7/3 0:30,20.2,0
2004/7/2,8:30:00,22.9,0,57.3,0,21.6,0,23.1,0,,0,2004/7/3 0:45,20.5,0
2004/7/2,8:40:00,22.9,0,56.8,0,21.6,0,23.2,0,,0,2004/7/3 1:00,20.8,0
2004/7/2,8:50:00,23,0,56.6,0,21.6,0,23.2,0,,0,2004/7/3 1:15,21.1,0
2004/7/2,9:00:00,23.1,0,56.7,0,21.6,0,23.2,0,,0,2004/7/3 1:30,21.4,0
2004/7/2,9:10:00,23.1,0,56.4,0,21.6,0,23.3,0,,0,2004/7/3 1:45,21.5,0
2004/7/2,9:20:00,23.1,0,55.6,0,21.6,0,23.4,0,,0,2004/7/3 2:00,21.7,0
2004/7/2,9:30:00,23.2,0,55.8,0,21.6,0,23.4,0,,0,2004/7/3 2:15,21.8,0
2004/7/2,9:40:00,23.2,0,55.7,0,21.6,0,23.5,0,,0,2004/7/3 2:30,21.9,0
2004/7/2,9:50:00,23.3,0,55.4,0,21.6,0,23.6,0,,0,2004/7/3 2:45,22,0
2004/7/2,10:00:00,23.3,0,55.8,0,21.6,0,23.6,0,,0,2004/7/3 3:00,19.1,0
2004/7/2,10:10:00,23.4,0,55.1,0,21.6,0,23.7,0,,0,2004/7/3 3:15,19.8,0
2004/7/2,10:20:00,23.4,0,54.7,0,21.6,0,23.8,0,,0,2004/7/3 3:30,20.4,0
2004/7/2,10:30:00,23.5,0,54.5,0,21.6,0,23.9,0,,0,2004/7/3 3:45,20.9,0
2004/7/2,10:40:00,23.6,0,54.1,0,21.6,0,23.9,0,,0,2004/7/3 4:00,21.1,0
2004/7/2,10:50:00,23.7,0,54.1,0,21.6,0,24.1,0,,0,2004/7/3 4:15,21.4,0
2004/7/2,11:00:00,23.8,0,53.8,0,21.6,0,24.2,0,,0,2004/7/3 4:30,20.5,0
2004/7/2,11:10:00,23.9,0,53.5,0,21.7,0,24.3,0,,0,2004/7/3 4:45,19.3,0
2004/7/2,11:20:00,24,0,53,0,21.7,0,24.4,0,,0,2004/7/3 5:00,19.9,0
2004/7/2,11:30:00,24.1,0,52.5,0,21.7,0,24.5,0,,0,2004/7/3 5:15,20.4,0
2004/7/2,11:40:00,24.1,0,52.4,0,21.7,0,24.7,0,,0,2004/7/3 5:30,20.9,0
2004/7/2,11:50:00,24.1,0,52.2,0,21.7,0,24.7,0,,0,2004/7/3 5:45,21.2,0
2004/7/2,12:00:00,24.1,0,52.3,0,21.7,0,24.8,0,,0,2004/7/3 6:00,21.4,0
2004/7/2,12:10:00,24.2,0,52.3,0,21.7,0,24.9,0,,0,2004/7/3 6:15,21.5,0
2004/7/2,12:20:00,24.2,0,51.8,0,21.7,0,25,0,,0,2004/7/3 6:30,21.8,0
2004/7/2,12:30:00,24.4,0,51.7,0,21.7,0,25.1,0,,0,2004/7/3 6:45,21.9,0
2004/7/2,12:40:00,24.4,0,51.4,0,21.7,0,25.3,0,,0,2004/7/3 7:00,18.2,0
2004/7/2,12:50:00,24.5,0,51.5,0,21.7,0,25.4,0,,0,2004/7/3 7:15,17.6,0
2004/7/2,13:00:00,24.6,0,51.1,0,21.8,0,25.5,0,,0,2004/7/3 7:30,18.2,0
2004/7/2,13:10:00,24.7,0,51.3,0,21.8,0,25.7,0,,0,2004/7/3 7:45,18,0
2004/7/2,13:20:00,24.7,0,50.9,0,21.8,0,25.7,0,,0,2004/7/3 8:00,18.2,0
2004/7/2,13:30:00,24.7,0,51.2,0,21.8,0,25.8,0,,0,2004/7/3 8:15,18.7,0
2004/7/2,13:40:00,24.8,0,51.2,0,21.8,0,25.8,0,,0,2004/7/3 8:30,19.3,0
2004/7/2,13:50:00,24.8,0,51,0,21.9,0,25.8,0,,0,2004/7/3 8:45,18.6,0
2004/7/2,14:00:00,24.7,0,49.4,0,21.9,0,25.9,0,,0,2004/7/3 9:00,17.7,0
2004/7/2,14:10:00,24.6,0,48.7,0,21.9,0,25.9,0,,0,2004/7/3 9:15,17.7,0
2004/7/2,14:20:00,24.6,0,48.6,0,22,0,25.8,0,,0,2004/7/3 9:30,18.2,0
2004/7/2,14:30:00,24.5,0,45.4,0,22,0,25.8,0,,0,2004/7/3 9:45,18.1,0
2004/7/2,14:40:00,24.5,0,45.1,0,22,0,25.8,0,,0,2004/7/3 10:00,16.9,0
2004/7/2,14:50:00,24.4,0,44.5,0,22,0,25.8,0,,0,2004/7/3 10:15,18,0
2004/7/2,15:00:00,24.4,0,44.1,0,22,0,25.8,0,,0,2004/7/3 10:30,18.9,0
2004/7/2,15:10:00,24.4,0,44,0,22,0,25.8,0,,0,2004/7/3 10:45,19.7,0
2004/7/2,15:20:00,24.4,0,44.8,0,22,0,25.8,0,,0,2004/7/3 11:00,20.4,0
2004/7/2,15:30:00,24.3,0,44.9,0,22,0,25.8,0,,0,2004/7/3 11:15,20.9,0
2004/7/2,15:40:00,24.2,0,46.2,0,22.1,0,25.8,0,,0,2004/7/3 11:30,21.2,0
2004/7/2,15:50:00,24.1,0,46.8,0,22,0,25.8,0,,0,2004/7/3 11:45,21.7,0
2004/7/2,16:00:00,24.2,0,48,0,22,0,25.7,0,,0,2004/7/3 12:00,21.8,0
2004/7/2,16:10:00,24.1,0,50.1,0,22,0,25.7,0,,0,2004/7/3 12:15,22.2,0
2004/7/2,16:20:00,24,0,51,0,22,0,25.6,0,,0,2004/7/3 12:30,22.4,0
2004/7/2,16:30:00,23.9,0,51.7,0,22,0,25.5,0,,0,2004/7/3 12:45,19.1,0
2004/7/2,16:40:00,23.9,0,52.3,0,22,0,25.4,0,,0,2004/7/3 13:00,19.7,0
2004/7/2,16:50:00,23.8,0,52.6,0,22,0,25.4,0,,0,2004/7/3 13:15,20.6,0
2004/7/2,17:00:00,23.7,0,53,0,22,0,25.3,0,,0,2004/7/3 13:30,21.3,0
2004/7/2,17:10:00,23.6,0,53.4,0,22,0,25.2,0,,0,2004/7/3 13:45,19.8,0
2004/7/2,17:20:00,23.5,0,53.9,0,22,0,25.1,0,,0,2004/7/3 14:00,20.8,0
2004/7/2,17:30:00,23.4,0,54,0,21.9,0,25,0,,0,2004/7/3 14:15,21.6,0
2004/7/2,17:40:00,23.3,0,54.4,0,21.9,0,24.9,0,,0,2004/7/3 14:30,22.2,0
2004/7/2,17:50:00,23.2,0,54.6,0,21.9,0,24.8,0,,0,2004/7/3 14:45,22.4,0
2004/7/2,18:00:00,23.1,0,55.5,0,21.9,0,24.8,0,,0,2004/7/3 15:00,22.6,0
2004/7/2,18:10:00,23.1,0,55.6,0,21.9,0,24.7,0,,0,2004/7/3 15:15,21.5,0
2004/7/2,18:20:00,23,0,56.1,0,21.9,0,24.6,0,,0,2004/7/3 15:30,18.8,0
2004/7/2,18:30:00,22.9,0,56.8,0,21.9,0,24.6,0,,0,2004/7/3 15:45,19.3,0
2004/7/2,18:40:00,22.9,0,56.9,0,21.8,0,24.6,0,,0,2004/7/3 16:00,19.9,0
2004/7/2,18:50:00,22.8,0,56.6,0,21.8,0,24.5,0,,0,2004/7/3 16:15,20.3,0
2004/7/2,19:00:00,22.8,0,56.6,0,21.8,0,24.4,0,,0,2004/7/3 16:30,20.7,0
2004/7/2,19:10:00,23,0,56.2,0,21.8,0,24.4,0,,0,2004/7/3 16:45,21.2,0
2004/7/2,19:20:00,23,0,56,0,21.8,0,24.4,0,,0,2004/7/3 17:00,21.5,0
2004/7/2,19:30:00,23,0,56.3,0,21.8,0,24.4,0,,0,2004/7/3 17:15,21.8,0
2004/7/2,19:40:00,23,0,56.2,0,21.8,0,24.3,0,,0,2004/7/3 17:30,18.3,0
2004/7/2,19:50:00,23.1,0,56,0,21.8,0,24.3,0,,0,2004/7/3 17:45,18.1,0
2004/7/2,20:00:00,23.2,0,55.7,0,21.8,0,24.3,0,,0,2004/7/3 18:00,18.1,0
2004/7/2,20:10:00,23.3,0,55.7,0,21.8,0,24.3,0,,0,2004/7/3 18:15,18.2,0
2004/7/2,20:20:00,23.3,0,55.6,0,21.8,0,24.3,0,,0,2004/7/3 18:30,17.6,0
2004/7/2,20:30:00,23.4,0,56,0,21.8,0,24.3,0,,0,2004/7/3 18:45,18.2,0
2004/7/2,20:40:00,23.4,0,55.8,0,21.7,0,24.3,0,,0,2004/7/3 19:00,19,0
2004/7/2,20:50:00,23.4,0,56,0,21.7,0,24.2,0,,0,2004/7/3 19:15,19.7,0
2004/7/2,21:00:00,23.4,0,56.1,0,21.7,0,24.2,0,,0,2004/7/3 19:30,20.2,0
2004/7/2,21:10:00,23.4,0,55.9,0,21.7,0,24.2,0,,0,2004/7/3 19:45,20.5,0
2004/7/2,21:20:00,23.4,0,56,0,21.7,0,24.2,0,,0,2004/7/3 20:00,20.8,0
2004/7/2,21:30:00,23.4,0,55.9,0,21.7,0,24.2,0,,0,2004/7/3 20:15,21.1,0
2004/7/2,21:40:00,23.4,0,56.1,0,21.7,0,24.1,0,,0,2004/7/3 20:30,21.4,0
2004/7/2,21:50:00,23.4,0,56.1,0,21.7,0,24.1,0,,0,2004/7/3 20:45,18.4,0
2004/7/2,22:00:00,23.4,0,56.1,0,21.7,0,24.1,0,,0,2004/7/3 21:00,18.8,0
2004/7/2,22:10:00,23.4,0,56.1,0,21.7,0,24.1,0,,0,2004/7/3 21:15,18.5,0
2004/7/2,22:20:00,23.4,0,56,0,21.7,0,24.1,0,,0,2004/7/3 21:30,19.1,0
2004/7/2,22:30:00,23.4,0,56.2,0,21.7,0,24.1,0,,0,2004/7/3 21:45,19.7,0
2004/7/2,22:40:00,23.5,0,56.2,0,21.7,0,24,0,,0,2004/7/3 22:00,20.1,0
2004/7/2,22:50:00,23.5,0,55.9,0,21.7,0,24,0,,0,2004/7/3 22:15,18.2,0
2004/7/2,23:00:00,23.5,0,56,0,21.7,0,24,0,,0,2004/7/3 22:30,17.6,0
2004/7/2,23:10:00,23.5,0,56.1,0,21.7,0,24,0,,0,2004/7/3 22:45,18.4,0
2004/7/2,23:20:00,23.5,0,56,0,21.7,0,24,0,,0,2004/7/3 23:00,18.6,0
2004/7/2,23:30:00,23.5,0,55.9,0,21.7,0,23.9,0,,0,2004/7/3 23:15,19,0
2004/7/2,23:40:00,23.4,0,56.1,0,21.7,0,24,0,,0,2004/7/3 23:30,19.6,0
2004/7/2,23:50:00,23.4,0,56.2,0,21.7,0,24,0,,0,2004/7/3 23:45,20.2,0
2004/7/3,0:00:00,23.4,0,56.4,0,21.7,0,24,0,,0,2004/7/4 0:00,20.6,0
2004/7/3,0:10:00,23.4,0,56.5,0,21.7,0,24,0,,0,2004/7/4 0:15,20.7,0
2004/7/3,0:20:00,23.3,0,56.6,0,21.7,0,24,0,,0,2004/7/4 0:30,21,0
2004/7/3,0:30:00,23.3,0,56.6,0,21.6,0,24,0,,0,2004/7/4 0:45,21.3,0
2004/7/3,0:40:00,23.3,0,56.6,0,21.7,0,24,0,,0,2004/7/4 1:00,21.4,0
2004/7/3,0:50:00,23.2,0,56.8,0,21.6,0,24,0,,0,2004/7/4 1:15,21.6,0
2004/7/3,1:00:00,23.2,0,56.7,0,21.6,0,24,0,,0,2004/7/4 1:30,21.6,0
2004/7/3,1:10:00,23.2,0,56.7,0,21.6,0,23.9,0,,0,2004/7/4 1:45,21.8,0
2004/7/3,1:20:00,23.2,0,56.7,0,21.6,0,23.9,0,,0,2004/7/4 2:00,21.8,0
2004/7/3,1:30:00,23.1,0,56.7,0,21.6,0,23.9,0,,0,2004/7/4 2:15,21.8,0
2004/7/3,1:40:00,23.1,0,56.8,0,21.6,0,23.9,0,,0,2004/7/4 2:30,21.9,0
2004/7/3,1:50:00,23.1,0,56.8,0,21.6,0,23.9,0,,0,2004/7/4 2:45,21.9,0
2004/7/3,2:00:00,23.1,0,56.9,0,21.6,0,23.9,0,,0,2004/7/4 3:00,22,0
2004/7/3,2:10:00,23,0,56.9,0,21.6,0,23.9,0,,0,2004/7/4 3:15,21.9,0
2004/7/3,2:20:00,23,0,57,0,21.6,0,23.8,0,,0,2004/7/4 3:30,21.9,0
2004/7/3,2:30:00,23,0,57,0,21.6,0,23.8,0,,0,2004/7/4 3:45,22,0
2004/7/3,2:40:00,23,0,57.1,0,21.6,0,23.8,0,,0,2004/7/4 4:00,22,0
2004/7/3,2:50:00,22.9,0,57.1,0,21.6,0,23.8,0,,0,2004/7/4 4:15,22.2,0
2004/7/3,3:00:00,22.9,0,57.2,0,21.6,0,23.8,0,,0,2004/7/4 4:30,22.2,0
2004/7/3,3:10:00,22.9,0,57.2,0,21.6,0,23.8,0,,0,2004/7/4 4:45,22.2,0
2004/7/3,3:20:00,22.9,0,57.2,0,21.6,0,23.8,0,,0,2004/7/4 5:00,19.2,0
2004/7/3,3:30:00,22.9,0,57.2,0,21.6,0,23.8,0,,0,2004/7/4 5:15,20,0
2004/7/3,3:40:00,22.8,0,57.3,0,21.6,0,23.7,0,,0,2004/7/4 5:30,18.4,0
2004/7/3,3:50:00,22.8,0,57.3,0,21.6,0,23.7,0,,0,2004/7/4 5:45,19.3,0
2004/7/3,4:00:00,22.8,0,57.3,0,21.6,0,23.7,0,,0,2004/7/4 6:00,19.9,0
2004/7/3,4:10:00,22.8,0,57.3,0,21.6,0,23.7,0,,0,2004/7/4 6:15,20.4,0
2004/7/3,4:20:00,22.8,0,57.3,0,21.6,0,23.7,0,,0,2004/7/4 6:30,20.8,0
2004/7/3,4:30:00,22.8,0,57.4,0,21.6,0,23.6,0,,0,2004/7/4 6:45,21.2,0
2004/7/3,4:40:00,22.8,0,57.3,0,21.6,0,23.6,0,,0,2004/7/4 7:00,21.4,0
2004/7/3,4:50:00,22.7,0,57.3,0,21.6,0,23.6,0,,0,2004/7/4 7:15,21.6,0
2004/7/3,5:00:00,22.7,0,57.3,0,21.6,0,23.6,0,,0,2004/7/4 7:30,19.1,0
2004/7/3,5:10:00,22.7,0,57.3,0,21.6,0,23.6,0,,0,2004/7/4 7:45,19.7,0
2004/7/3,5:20:00,22.7,0,57.4,0,21.6,0,23.6,0,,0,2004/7/4 8:00,18,0
2004/7/3,5:30:00,22.7,0,57.3,0,21.5,0,23.6,0,,0,2004/7/4 8:15,18.5,0
2004/7/3,5:40:00,22.7,0,57.3,0,21.5,0,23.6,0,,0,2004/7/4 8:30,19.2,0
2004/7/3,5:50:00,22.7,0,57.3,0,21.5,0,23.6,0,,0,2004/7/4 8:45,19.9,0
2004/7/3,6:00:00,22.7,0,57.4,0,21.5,0,23.6,0,,0,2004/7/4 9:00,19.7,0
2004/7/3,6:10:00,22.7,0,57.3,0,21.5,0,23.6,0,,0,2004/7/4 9:15,19.2,0
2004/7/3,6:20:00,22.7,0,57.3,0,21.5,0,23.6,0,,0,2004/7/4 9:30,17.8,0
2004/7/3,6:30:00,22.7,0,57.5,0,21.5,0,23.6,0,,0,2004/7/4 9:45,17.4,0
2004/7/3,6:40:00,22.8,0,57.4,0,21.5,0,23.6,0,,0,2004/7/4 10:00,17.7,0
2004/7/3,6:50:00,22.8,0,57.3,0,21.5,0,23.6,0,,0,2004/7/4 10:15,18.4,0
2004/7/3,7:00:00,22.8,0,57.1,0,21.5,0,23.7,0,,0,2004/7/4 10:30,19,0
2004/7/3,7:10:00,22.9,0,57,0,21.5,0,23.7,0,,0,2004/7/4 10:45,19.7,0
2004/7/3,7:20:00,22.9,0,57,0,21.5,0,23.7,0,,0,2004/7/4 11:00,20.2,0
2004/7/3,7:30:00,23,0,57.9,0,21.5,0,23.7,0,,0,2004/7/4 11:15,20.7,0
2004/7/3,7:40:00,23.1,0,57.9,0,21.5,0,23.7,0,,0,2004/7/4 11:30,18,0
2004/7/3,7:50:00,23.2,0,57.9,0,21.5,0,23.7,0,,0,2004/7/4 11:45,18.8,0
2004/7/3,8:00:00,23.2,0,57.9,0,21.5,0,23.7,0,,0,2004/7/4 12:00,19.6,0
2004/7/3,8:10:00,23.2,0,57.9,0,21.5,0,23.7,0,,0,2004/7/4 12:15,20.1,0
2004/7/3,8:20:00,23.3,0,57.8,0,21.5,0,23.8,0,,0,2004/7/4 12:30,20.5,0
2004/7/3,8:30:00,23.4,0,57.7,0,21.5,0,23.8,0,,0,2004/7/4 12:45,20.8,0